Regional Weather Roundup
Issued by NWS

Home | Current Version | Previous Version | Graphics & Text | Print | Product List | Glossary On
Versions: 1 2 3 4 5 6 7 8 9 10 11 12 13 14 15 16 17 18 19 20 21 22 23 24 25 26 27
000
ASUS45 KCYS 240010
RWRWY

WYOMING REGIONAL WEATHER ROUNDUP
NATIONAL WEATHER SERVICE CHEYENNE WY
500 PM MST THU NOV 23 2017

NOTE:  "FAIR" INDICATES FEW OR NO CLOUDS BELOW 12,000 FEET
WITH NO SIGNIFICANT WEATHER AND/OR OBSTRUCTIONS TO VISIBILITY.

WYZ001-240100-
YELLOWSTONE NATIONAL PARK

CITY           SKY/WX    TMP DP  RH WIND       PRES   REMARKS
LK YELLOWSTONE   N/A     41  34  76 W8G21     30.08S
6HR MIN TEMP:  41; 6HR MAX TEMP:  48;

W YELLOWSTONE  NOT AVBL

$$
WYZ002>013-054>058-071-098>099-240100-
NORTHERN WYOMING

CITY           SKY/WX    TMP DP  RH WIND       PRES   REMARKS
JACKSON        MOCLDY    52  36  54 SW13      30.07F
CODY           FAIR      60  31  33 W14G25    29.86R
GREYBULL       FAIR      45  37  73 CALM      29.83S
6HR MIN TEMP:  40; 6HR MAX TEMP:  50;

WORLAND        FAIR      44  38  79 S7        29.84F
6HR MIN TEMP:  41; 6HR MAX TEMP:  55;

SHERIDAN       FAIR      60  34  37 W9        29.75F
6HR MIN TEMP:  57; 6HR MAX TEMP:  74;

BUFFALO        FAIR      59  28  30 CALM      29.80F
6HR MIN TEMP:  52; 6HR MAX TEMP:  65;

GILLETTE       FAIR      60  34  37 SW21      29.77F
6HR MIN TEMP:  59; 6HR MAX TEMP:  65;

HULETT         FAIR      52  34  50 S12       29.78F
NEWCASTLE      FAIR      46  32  57 NE6       29.84S

$$
WYZ014>020-022>026-101>103-240100-
CENTRAL WYOMING

CITY           SKY/WX    TMP DP  RH WIND       PRES   REMARKS
BIG PINEY      FAIR      48  35  60 W13G21    30.14S
6HR MIN TEMP:  38; 6HR MAX TEMP:  55;

PINEDALE       CLOUDY    43  36  75 NW3       30.15F
DUBOIS         FAIR      46  32  57 W13G23    30.05F
LANDER         FAIR      61  31  32 W16G24    29.95F
6HR MIN TEMP:  50; 6HR MAX TEMP:  68;

RIVERTON       FAIR      59  30  33 W16G29    29.96F
6HR MIN TEMP:  47; 6HR MAX TEMP:  62;

CASPER         FAIR      55  36  48 SW16      29.95F
6HR MIN TEMP:  55; 6HR MAX TEMP:  59; 6HR PCP: TRACE;

DOUGLAS        FAIR      60  38  43 W25G35    29.88S
6HR MIN TEMP:  60; 6HR MAX TEMP:  65;


$$
WYZ021-027>030-104>119-240100-
SOUTHERN WYOMING

CITY           SKY/WX    TMP DP  RH WIND       PRES   REMARKS
EVANSTON       FAIR      51  34  52 SW10      30.21F
6HR MIN TEMP:  49; 6HR MAX TEMP:  60;

KEMMERER       FAIR      46  34  61 W16G23    30.17F
FORT BRIDGER   FAIR      54  35  47 W18G25    30.19F
ROCK SPRINGS   FAIR      53  34  48 W21       30.14F
6HR MIN TEMP:  52; 6HR MAX TEMP:  57;

DIXON          FAIR      53  32  45 SW14G21   30.19F
RAWLINS        FAIR      52  36  54 SW22G29   30.10F
6HR MIN TEMP:  52; 6HR MAX TEMP:  56; 6HR PCP: TRACE;

SARATOGA       FAIR      50  32  50 SW12G17   30.16F
LARAMIE        CLOUDY    52  30  43 S15       30.11S
6HR MIN TEMP:  52; 6HR MAX TEMP:  60;

CHEYENNE       FAIR      59  30  33 W23       30.01F
6HR MIN TEMP:  58; 6HR MAX TEMP:  64;

TORRINGTON     FAIR      63  38  39 W10       29.87F
6HR MIN TEMP:  62; 6HR MAX TEMP:  70;

PINE BLUFFS    FAIR      59  30  33 W14G20    29.96F

$$




USA.gov is the U.S. government's official web portal to all federal, state and local government web resources and services.